Regional Weather Roundup
Issued by NWS

Home | Current Version | Previous Version | Text Only | Print | Product List | Glossary On
Versions: 1 2 3 4 5 6 7 8 9 10 11 12 13 14 15 16 17 18 19 20 21 22 23 24 25 26 27 28 29 30 31 32 33 34 35 36 37 38 39 40 41 42 43 44 45 46 47 48 49 50
971
ASCA44 KEWX 301612
RWRMX

LATIN AMERICA AND CARIBBEAN REGIONAL WEATHER ROUNDUP
NATIONAL WEATHER SERVICE AUSTIN/SAN ANTONIO TX
1100 AM CDT THU MAR 30 2017

NOTE: "FAIR" INDICATED FEW OR NO CLOUDS BELOW 12,000 FEET WITH NO
SIGNIFICANT WEATHER AND/OR OBSTRUCTIONS TO VISIBILITY.

BAJA CALIFORNIA

CITY           SKY/WX    TMP DP  RH WIND       PRES   REMARKS
LORETO         SUNNY     79  46  31 CALM      29.93S
LA PAZ         SUNNY     68  45  42 CALM      29.98S
MEXICALI       SUNNY     68  34  28 SE7       29.86S
S.J. DEL CABO  SUNNY     73  39  29 CALM      29.97R
TIJUANA        SUNNY     64  34  32 CALM      30.00R

NORTHWESTERN MEXICO

CITY           SKY/WX    TMP DP  RH WIND       PRES   REMARKS
CULIACAN       SUNNY     73  48  40 N5        29.92S
DURANGO        MOSUNNY   57  19  23 CALM      30.27S
GUAYMAS        SUNNY     73  37  27 CALM      29.90R
HERMOSILLO     SUNNY     75  34  22 CALM      29.96F
CD. JUAREZ     SUNNY     63  36  36 SW14      29.96F
LOS MOCHIS     SUNNY     70  55  60 NW10      29.95R
OBREGON        SUNNY     75  39  27 CALM      29.91S

NORTHEASTERN MEXICO

CITY           SKY/WX    TMP DP  RH WIND       PRES   REMARKS
CHIHUAHUA      SUNNY     63  28  27 S6        30.13F
MATAMOROS      MOSUNNY   73  48  40 N16       29.93S
MONCLOVA       SUNNY     70  37  30 N8        30.02S
MONTERREY      SUNNY     73  37  27 NW12      30.00S
NUEVO LAREDO   SUNNY     68  43  40 N10       30.01F
PIEDRAS NEGRAS SUNNY     70  45  40 CALM      30.01F
REYNOSA        SUNNY     70  39  32 N14G25    29.95S
SALTILLO       SUNNY     68  41  37 CALM      30.16S
TORREON        SUNNY     70  27  19 NW6       30.13R
CD. VICTORIA   SUNNY     77  41  27 N14       29.97S

WESTERN MEXICO

CITY           SKY/WX    TMP DP  RH WIND       PRES   REMARKS
AGUASCALIENTES MOSUNNY   66   9  10 CALM      30.25S
COLIMA           N/A    N/A N/A N/A MISG        N/A
DEL BAJIO      SUNNY     68  18  14 CALM      30.28R
GUADALAJARA    SUNNY     70  28  21 CALM      30.19R
MANZANILLO     MOSUNNY   82  66  57 CALM      29.90S
MAZATLAN       MOSUNNY   75  54  46 CALM      29.97S
P. VALLARTA    SUNNY     75  61  60 NW3       29.93S
URUAPAN        MOSUNNY   73  46  38 CALM      30.16R
ZACATECAS      SUNNY     63  18  17 CALM      30.26S

CENTRAL MEXICO

CITY           SKY/WX    TMP DP  RH WIND       PRES   REMARKS
CUERNAVACA     MOSUNNY   79  32  18 SE5       30.09S
MEXICO CITY    MOSUNNY   68  25  19 E5        30.28S
MORELIA        MOSUNNY   70  36  28 CALM      30.23F
POZA RICA      PTSUNNY   84  73  70 N9        29.94R HX  91
PUEBLA         SUNNY     66  28  24 SE6       30.29R
QUERETARO      MOSUNNY   68  23  18 W12       30.28R
S. LUIS POTOSI SUNNY     68  16  13 NW12      30.19F
TAMPICO        MOSUNNY   81  73  78 N8        29.89R
TOLUCA           N/A    N/A N/A N/A MISG        N/A

SOUTHERN MEXICO

CITY           SKY/WX    TMP DP  RH WIND       PRES   REMARKS
ACAPULCO       SUNNY     82  68  61 CALM      29.93R
B. DE HUATULCO PTSUNNY   82  68  61 W17       29.96S
OAXACA         PTSUNNY   72  50  46 CALM      30.18F
P. ESCONDIDO   PTSUNNY   81  64  57 W6        30.01R
VERACRUZ       MOSUNNY   84  73  70 E9        29.83S HX  91
ZIHUATANEJO    MOSUNNY   82  70  65 S3        29.93R

YUCATAN PENINSULA

CITY           SKY/WX    TMP DP  RH WIND       PRES   REMARKS
CAMPECHE       MOSUNNY   86  72  62 SE12G23   29.79S HX  92
CANCUN         PTSUNNY   84  72  65 SE23      29.90F
CHETUMAL       PTSUNNY   84  73  70 E16       29.88S HX  91
CD. DEL CARMEN PTSUNNY   82  70  65 SE9       29.81S
COZUMEL        MOSUNNY   82  72  69 SE9       29.99R
MERIDA         PTSUNNY   88  68  51 SE16      29.85F HX  91
MINATITLAN     SUNNY     86  75  70 SW17      29.80R HX  95
TAPACHULA      MOSUNNY   88  72  58 W6        29.92S HX  94
TUX. GUTIERREZ MOSUNNY   82  55  39 CALM      29.94F
VILLAHERMOSA   MOSUNNY   82  73  74 CALM      29.82F

CENTRAL AMERICA

CITY           SKY/WX    TMP DP  RH WIND       PRES   REMARKS
BELIZE CITY    PTSUNNY   84  77  79 SE8       29.85F HX  94
MANAGUA        PTSUNNY   86  68  54 SE12      29.89F

CARIBBEAN

CITY           SKY/WX    TMP DP  RH WIND       PRES   REMARKS
ARUBA          MOSUNNY   88  75  66 E16       29.89F HX  97
KINGSTON       MOSUNNY   82  66  57 S9        29.97S
NASSAU         MOSUNNY   82  55  39 SE13      30.06F
SAN JUAN       MOSUNNY   81  72  74 NE10      30.02S
SANTO DOMINGO  PTSUNNY   86  72  62 NE8       29.97F HX  92
ST. CROIX      MOSUNNY   84  70  61 NE10G21   30.01S
ST. KITTS      MOSUNNY   84  72  65 NE12      29.97F
ST. MAARTEN    MOSUNNY   84  72  65 NE12      29.97F
ST. THOMAS     MOSUNNY   81  68  65 NE8G16    30.00F

$$





USA.gov is the U.S. government's official web portal to all federal, state and local government web resources and services.